• In Russia
  • List of Countries
  • For 7 days
  • Water Temperature
  • Satellite Maps
  • Weather Map
  • Weather Widgets
  • user-avatar
    Login

    Hourly Weather Ust-Muya

    Today, 18 January, Friday

    Time Temperature Precipitation Wind Pressure Humidity
    00:00 -19°C° 0 mm 1 mps 722 mmHg 80%
    01:00 -19°C° 0 mm 1 mps 722 mmHg 80%
    02:00 -18°C° 0 mm 1 mps 722 mmHg 80%
    03:00 -18°C° 0 mm 1 mps 722 mmHg 81%
    04:00 -18°C° 0 mm 1 mps 722 mmHg 82%
    05:00 -18°C° 0 mm 1 mps 722 mmHg 82%
    06:00 -17°C° 0 mm 1 mps 722 mmHg 83%
    07:00 -17°C° 0 mm 1 mps 722 mmHg 84%
    08:00 -17°C° 0 mm 1 mps 722 mmHg 85%
    09:00 -16°C° 0 mm 1 mps 722 mmHg 84%
    10:00 -15°C° 0 mm 1 mps 722 mmHg 83%
    11:00 -14°C° 0 mm 0 mps 722 mmHg 83%
    12:00 -13°C° 0 mm 0 mps 722 mmHg 83%
    13:00 -12°C° 0 mm 0 mps 722 mmHg 83%
    14:00 -12°C° 0 mm 1 mps 722 mmHg 83%
    15:00 -13°C° 0 mm 1 mps 722 mmHg 84%
    16:00 -14°C° 0 mm 1 mps 722 mmHg 85%
    17:00 -15°C° 0 mm 1 mps 723 mmHg 86%
    18:00 -16°C° 0 mm 1 mps 723 mmHg 86%
    19:00 -16°C° 0 mm 1 mps 723 mmHg 85%
    20:00 -17°C° 0 mm 1 mps 724 mmHg 84%
    21:00 -17°C° 0 mm 1 mps 724 mmHg 84%
    22:00 -20°C° 0 mm 2 mps 724 mmHg 84%
    23:00 -20°C° 0 mm 2 mps 724 mmHg 83%

    Tomorrow, 19 January, Saturday

    Time Temperature Precipitation Wind Pressure Humidity
    00:00 -20°C° 0 mm 2 mps 725 mmHg 83%
    01:00 -20°C° 0 mm 2 mps 725 mmHg 84%
    02:00 -21°C° 0 mm 2 mps 725 mmHg 84%
    03:00 -19°C° 0 mm 1 mps 725 mmHg 84%
    04:00 -19°C° 0 mm 1 mps 725 mmHg 84%
    05:00 -19°C° 0 mm 1 mps 725 mmHg 84%
    06:00 -19°C° 0 mm 1 mps 725 mmHg 84%
    07:00 -21°C° 0 mm 2 mps 726 mmHg 84%
    08:00 -23°C° 0 mm 2 mps 726 mmHg 84%
    09:00 -18°C° 0 mm 1 mps 726 mmHg 83%
    10:00 -17°C° 0 mm 1 mps 726 mmHg 82%
    11:00 -16°C° 0 mm 1 mps 726 mmHg 80%
    12:00 -15°C° 0 mm 1 mps 725 mmHg 80%
    13:00 -14°C° 0 mm 1 mps 725 mmHg 80%
    14:00 -13°C° 0 mm 1 mps 724 mmHg 80%
    15:00 -14°C° 0 mm 1 mps 724 mmHg 82%
    16:00 -15°C° 0 mm 1 mps 724 mmHg 85%
    17:00 -16°C° 0 mm 1 mps 724 mmHg 87%
    18:00 -16°C° 0 mm 1 mps 724 mmHg 87%
    19:00 -16°C° 0 mm 1 mps 723 mmHg 87%
    20:00 -16°C° 0 mm 1 mps 723 mmHg 87%
    21:00 -16°C° 0 mm 1 mps 723 mmHg 86%
    22:00 -16°C° 0 mm 1 mps 722 mmHg 86%
    23:00 -16°C° 0 mm 1 mps 722 mmHg 86%

    Day after tomorrow, 20 January, Sunday

    Time Temperature Precipitation Wind Pressure Humidity
    00:00 -16°C° 0 mm 1 mps 721 mmHg 86%
    01:00 -15°C° 0 mm 1 mps 721 mmHg 86%
    02:00 -15°C° 0 mm 1 mps 721 mmHg 86%
    03:00 -15°C° 0 mm 1 mps 720 mmHg 86%
    04:00 -15°C° 0 mm 1 mps 720 mmHg 87%
    05:00 -15°C° 0 mm 1 mps 720 mmHg 87%
    06:00 -16°C° 0 mm 1 mps 719 mmHg 86%
    07:00 -16°C° 0 mm 1 mps 719 mmHg 86%
    08:00 -16°C° 0 mm 1 mps 718 mmHg 86%
    09:00 -15°C° 0 mm 1 mps 718 mmHg 84%
    10:00 -14°C° 0 mm 1 mps 717 mmHg 82%
    11:00 -13°C° 0 mm 1 mps 717 mmHg 80%
    12:00 -12°C° 0.1 mm 1 mps 716 mmHg 82%
    13:00 -11°C° 0.1 mm 0 mps 716 mmHg 84%
    14:00 -11°C° 0.1 mm 0 mps 715 mmHg 85%
    15:00 -11°C° 0.1 mm 0 mps 715 mmHg 87%
    16:00 -12°C° 0.1 mm 0 mps 716 mmHg 89%
    17:00 -12°C° 0.1 mm 0 mps 716 mmHg 90%
    18:00 -12°C° 0 mm 0 mps 716 mmHg 89%
    19:00 -12°C° 0 mm 1 mps 717 mmHg 89%
    20:00 -12°C° 0 mm 1 mps 717 mmHg 88%
    21:00 -12°C° 0 mm 1 mps 717 mmHg 88%
    22:00 -12°C° 0 mm 1 mps 718 mmHg 87%
    23:00 -12°C° 0 mm 1 mps 718 mmHg 87%

    21 January, Monday

    Time Temperature Precipitation Wind Pressure Humidity
    00:00 -12°C° 0 mm 1 mps 718 mmHg 86%
    01:00 -13°C° 0 mm 1 mps 718 mmHg 86%
    02:00 -13°C° 0 mm 1 mps 719 mmHg 85%
    03:00 -14°C° 0 mm 1 mps 719 mmHg 85%
    04:00 -14°C° 0 mm 1 mps 719 mmHg 84%
    05:00 -15°C° 0 mm 1 mps 719 mmHg 84%
    06:00 -15°C° 0 mm 1 mps 719 mmHg 84%
    07:00 -15°C° 0 mm 1 mps 719 mmHg 84%
    08:00 -15°C° 0 mm 1 mps 719 mmHg 84%
    09:00 -14°C° 0 mm 1 mps 718 mmHg 83%
    10:00 -13°C° 0 mm 1 mps 718 mmHg 82%
    11:00 -12°C° 0 mm 1 mps 717 mmHg 81%
    12:00 -12°C° 0.1 mm 1 mps 717 mmHg 81%
    13:00 -11°C° 0.1 mm 1 mps 716 mmHg 82%
    14:00 -11°C° 0.1 mm 1 mps 715 mmHg 82%
    15:00 -11°C° 0.1 mm 1 mps 716 mmHg 85%
    16:00 -12°C° 0.1 mm 1 mps 716 mmHg 87%
    17:00 -13°C° 0.1 mm 1 mps 716 mmHg 89%
    18:00 -13°C° 0 mm 1 mps 716 mmHg 89%
    19:00 -13°C° 0 mm 1 mps 716 mmHg 89%
    20:00 -13°C° 0 mm 1 mps 717 mmHg 89%
    21:00 -13°C° 0 mm 1 mps 717 mmHg 89%
    22:00 -13°C° 0 mm 1 mps 717 mmHg 89%
    23:00 -13°C° 0 mm 1 mps 718 mmHg 89%

    22 January, Tuesday

    Time Temperature Precipitation Wind Pressure Humidity
    00:00 -13°C° 0 mm 1 mps 718 mmHg 88%
    01:00 -13°C° 0 mm 1 mps 718 mmHg 87%
    02:00 -14°C° 0 mm 1 mps 719 mmHg 87%
    03:00 -14°C° 0 mm 1 mps 719 mmHg 86%
    04:00 -15°C° 0 mm 1 mps 720 mmHg 85%
    05:00 -15°C° 0 mm 1 mps 720 mmHg 84%
    06:00 -16°C° 0 mm 1 mps 721 mmHg 83%
    07:00 -16°C° 0 mm 1 mps 721 mmHg 83%
    08:00 -17°C° 0 mm 1 mps 722 mmHg 82%
    09:00 -15°C° 0 mm 1 mps 722 mmHg 80%
    10:00 -14°C° 0 mm 1 mps 722 mmHg 78%
    11:00 -13°C° 0 mm 1 mps 722 mmHg 76%
    12:00 -12°C° 0 mm 1 mps 722 mmHg 76%
    13:00 -12°C° 0 mm 1 mps 722 mmHg 76%
    14:00 -11°C° 0 mm 1 mps 722 mmHg 76%
    15:00 -12°C° 0 mm 1 mps 722 mmHg 78%
    16:00 -14°C° 0 mm 1 mps 722 mmHg 80%
    17:00 -15°C° 0 mm 1 mps 722 mmHg 82%
    18:00 -15°C° 0 mm 1 mps 722 mmHg 81%
    19:00 -15°C° 0 mm 1 mps 722 mmHg 80%
    20:00 -15°C° 0 mm 1 mps 721 mmHg 79%
    21:00 -15°C° 0 mm 1 mps 721 mmHg 79%
    22:00 -15°C° 0 mm 1 mps 721 mmHg 79%
    23:00 -15°C° 0 mm 1 mps 721 mmHg 79%

    23 January, Wednesday

    Time Temperature Precipitation Wind Pressure Humidity
    00:00 -15°C° 0 mm 1 mps 721 mmHg 79%
    01:00 -15°C° 0 mm 1 mps 721 mmHg 80%
    02:00 -15°C° 0 mm 1 mps 721 mmHg 80%
    03:00 -15°C° 0 mm 1 mps 721 mmHg 81%
    04:00 -15°C° 0 mm 1 mps 720 mmHg 82%
    05:00 -15°C° 0 mm 1 mps 720 mmHg 83%
    06:00 -14°C° 0.1 mm 1 mps 720 mmHg 85%
    07:00 -14°C° 0.1 mm 1 mps 720 mmHg 86%
    08:00 -14°C° 0.1 mm 1 mps 720 mmHg 88%
    09:00 -13°C° 0.1 mm 0 mps 721 mmHg 87%
    10:00 -12°C° 0.1 mm 0 mps 721 mmHg 87%
    11:00 -11°C° 0.1 mm 0 mps 721 mmHg 86%
    12:00 -10°C° 0.1 mm 0 mps 721 mmHg 85%
    13:00 -9°C° 0.1 mm 1 mps 721 mmHg 85%
    14:00 -9°C° 0.1 mm 1 mps 722 mmHg 84%
    15:00 -9°C° 0 mm 1 mps 722 mmHg 85%
    16:00 -10°C° 0 mm 2 mps 723 mmHg 85%
    17:00 -12°C° 0 mm 2 mps 724 mmHg 85%
    18:00 -13°C° 0 mm 2 mps 725 mmHg 83%
    19:00 -15°C° 0 mm 3 mps 725 mmHg 81%
    20:00 -16°C° 0 mm 3 mps 726 mmHg 79%
    21:00 -17°C° 0 mm 3 mps 726 mmHg 80%
    22:00 -17°C° 0 mm 2 mps 727 mmHg 81%
    23:00 -18°C° 0 mm 2 mps 727 mmHg 82%
    Show more